Location: Newark
(41.0400°S, 62.7845°W)
Time: 02:46:47
(UTC+00:00)

Vanguard 2 Rocket - Pass Details

Date: 05 December 2021
Orbit: 554 x 3325 km, 32.9° (Epoch: 21 January)

Event Time Altitude Azimuth Distance (km) Brightness Sun altitude
Rises 09:15:09 0° 300° (WNW) 7,310 10.8 6.3°
Reaches altitude 10° 09:20:22 10° 303° (WNW) 6,224 10.5 7.2°
Maximum altitude 09:38:40 55° 13° (NNE) 2,991 9.6 10.4°
Drops below altitude 10° 09:50:32 10° 86° (E) 4,200 11.8 12.5°
Sets 09:53:18 0° 90° (E) 4,880 12.2 13.0°
